Showing default

FENGYUN 3D, 43010

Orbit data source: Space-Track

FENGYUN 3D, 43010 is a payload satellite owned by CNMSC (CN) in SSO that was launched on Tue, 14 Nov 2017 UTC via a CHANG ZHENG 4C launch vehicle from the Taiyaun Space Center, China (TSC). Payloads include a variety of satellites, spacecraft, and rockets equipped with specific instruments for various scientific and technological missions. These include communications satellites like Starlink; space stations such as the ISS; scientific satellites like the Hubble; Earth observation satellites from companies like Planet Labs, Umbra, and HawkEye 360; GPS; miniature CubeSats for education and research; and military/defense satellites.

Loading next visibility...
FENGYUN 3D details
Identifier
43010, 2017-072A
Orbit
SSO
Last TLE update9 hours ago
Origin
Flag of CNCNMSC (CN / PRC)
ManufacturerSISE
MissionOperational Civil Weather
Bus & MotorFY-3, Unknown motor
Mass2,450 kg wet, 2,250 kg dry
Launch date (UTC)
2017-11-14 (7 years ago)
Launch vehicle
CHANG ZHENG 4C
Launch site
Taiyaun Space Center, China (TSC)
Object type
Payload
Rocket body
Debris
Shape & HBRBox + 2 Pan, 10 m
Radar Cross Section15.104 m², Large (>1 m²)

Expand to show TLE details & history

TLE from 9 hours ago
0 FENGYUN 3D
1 43010U 17072A   24361.10942619  .00000316  00000-0  17140-3 0  9999
2 43010  98.9390 317.1573 0002148 123.3967 236.7414 14.19527601368641
Epoch: 2024-12-26T02:37Z
Definitive object data (Epoch: 2024-12-26T02:37:34.422Z)
Latitude-0.00006°
Longitude-177.32965°
Altitude830.706 km
Speed7.437 km/s
True Right ascension21h 08m 37s
True Declination0° 00' 00"
Sunlit
Object was in daylight at TLE epoch
Visualization TLE readout
Latitude-9.8292°
Longitude1.51003°
Altitude831.064 km
Speed7.437 km/s
Apparent Right ascension06h 16m 00s
Apparent Declination-52° 17' 16"
Sunlit
Object is in full shadow
Visualization observer readout
Local Sidereal Time11:19:57
Azimuth220.221° SW
Elevation-23.205°
Doppler factor1
Orbital elements
Apogee altitude825.668 km
Perigee altitude822.574 km
Semi-major axis7,202.258 km
Eccentricity0.0002148
Inclination98.939°
RAAN317.1573°
Arg. of periapsis123.3967°
True anomaly236.72082°
Mean anomaly236.7414°
Eccentric anomaly236.73111°
Mean motion3.55091 °/min
BSTAR0.0001714
Orbital period101.38 mins
Loading maneuver chart data...
Loading historical data...
Loading historical data...
Loading historical data...
Loading historical data...
Loading historical data...
Loading historical data...
Loading historical data...
Other satellites on launch #72 in the year 2017 (2017-11-14 UTC)

FENGYUN 3D Visibility forecast

Observer location: undefined°, undefined

Span
Click to sort rows by Start time (UTC) header in descending order
Start Az.
Max El. time (UTC)
Max El. Az.
Max El.
End time (UTC)
End Az.
4 mins2024-12-26 19:43:31.732Z86.72° E2024-12-26 19:45:31.732Z63.879° ENE13.641°2024-12-26 19:47:31.732Z39.759° NE
9 mins2024-12-26 21:21:31.732Z171.002° S2024-12-26 21:25:31.732Z281.736° WNW44.359°2024-12-26 21:30:31.732Z343.53° N
8 mins2024-12-27 09:40:31.732Z34.636° NE2024-12-27 09:44:31.732Z108.392° ESE34.214°2024-12-27 09:48:31.732Z167.144° S
6 mins2024-12-27 11:21:31.732Z333.807° NNW2024-12-27 11:24:31.732Z288.634° WNW22.148°2024-12-27 11:27:31.732Z249.444° W
|